Kosmos-2510

operational
NORAD ID: 41032 Int'l Des: 2015-066 Owner: VVKOV Country: RU
MEOELLIPTICALHEO_ELLIPTICALSEMI_SYNCMOLNIYA

Über Kosmos-2510

Beschreibung wird geladen...

Live-Position

3D-Globus wird geladen...

Nächste Überflüge

Höhenverlauf

Altitude vs Time

uPlot chart will show altitude changes over time

Zweizeiliger Elementsatz

1 41032U 15066A 26060.96066440 .00001285 00000-0 00000+0 0 9992
2 41032 63.4486 1.0190 7211216 274.5568 13.9532 2.00931265 75318
Epoch: 1. März 2026 • Age: 62 hours

Aktueller Status

Höhe 33835.2 km
Geschwindigkeit 2.19 km/s
Subsatellitenpunkt 60.25°N, 50.56°E
Startdatum 17. Nov. 2015
Alter 10.2 years
Typ other

Technische Details

Klassifizierung Payload
Masse 2550.00 kg
Trockenmasse 2000.00 kg
Gesamtmasse 2550.00 kg
Länge 4.00 m
Durchmesser 2.00 m
Spannweite 10.00 m
Form Box + 2 Pan
Hersteller RKKE/KOMET
Bus-Typ 14F142 EKS
Phasenstatus In Orbit
Besitzer/Staat VVKOV/RU

Große Konstellationen

Loading constellations...